View from above orbital plane
|
View from above satellite
|
Ground track
|
The orbit data is extracted from the following two-line orbital elements,
1 28646U 05016A 21012.72781675 0.00000000 00000-0 00000-0 0 00
2 28646 57.0106 294.9858 0009643 131.3354 228.6646 14.51857605 00
Epoch (UTC): | 12 January 2021 17:28:03 |
Eccentricity: | 0.0009643 |
inclination: | 57.0106° |
perigee height: | 713 km |
apogee height: | 726 km |
right ascension of ascending node: | 294.9858° |
argument of perigee: | 131.3354° |
revolutions per day: | 14.51857605 |
mean anomaly at epoch: | 228.6646° |
orbit number at epoch: | 0 |
The dashed part of the orbit path shows where the satellite is in the earth's shadow,
|
|